This is the latest recevied weather packets stored in our database for station/object VK4CWL-13. If no packets are shown the sender has not sent any weather packets the latest 10 day(s).
| Time | Temp. | Humidity | Pressure | Rain* | Wind** | Luminosity | Snow |
|---|---|---|---|---|---|---|---|
| 1777411560 | 17.22° C | 79% | 1022.5 hPa | 0 mm | - | - | - |
| 1777411258 | 17.22° C | 81% | 1022.5 hPa | 0 mm | - | - | - |
| 1777410956 | 16.67° C | 81% | 1022.4 hPa | 0 mm | - | - | - |
| 1777410653 | 16.67° C | 83% | 1022.5 hPa | 0 mm | - | - | - |
| 1777410351 | 16.11° C | 83% | 1022.5 hPa | 0 mm | - | - | - |
| 1777410049 | 16.11° C | 84% | 1022.5 hPa | 0 mm | - | - | - |
| 1777409746 | 15.56° C | 85% | 1022.4 hPa | 0 mm | - | - | - |
| 1777409444 | 15.56° C | 85% | 1022.4 hPa | 0 mm | - | - | - |
| 1777409141 | 15.56° C | 85% | 1022.4 hPa | 0 mm | - | - | - |
| 1777408839 | 15.56° C | 85% | 1022.2 hPa | 0 mm | - | - | - |
| 1777408537 | 15.56° C | 86% | 1022.2 hPa | 0 mm | - | - | - |
| 1777408235 | 15° C | 85% | 1022.1 hPa | 0 mm | - | - | - |
| 1777407933 | 15° C | 85% | 1022 hPa | 0 mm | - | - | - |
| 1777407631 | 15° C | 85% | 1022 hPa | 0 mm | - | - | - |
| 1777407328 | 15° C | 84% | 1021.8 hPa | 0 mm | - | - | - |
| 1777407026 | 15° C | 84% | 1021.7 hPa | 0 mm | - | - | - |
| 1777406723 | 15° C | 84% | 1021.6 hPa | 0 mm | - | - | - |
| 1777406421 | 15° C | 83% | 1021.6 hPa | 0 mm | - | - | - |
| 1777406119 | 15.56° C | 83% | 1021.5 hPa | 0 mm | - | - | - |
| 1777405816 | 15.56° C | 83% | 1021.4 hPa | 0 mm | - | - | - |
| 1777405514 | 15.56° C | 82% | 1021.4 hPa | 0 mm | - | - | - |
| 1777405212 | 15.56° C | 81% | 1021.2 hPa | 0 mm | - | - | - |
| 1777404912 | 15.56° C | 81% | 1021.3 hPa | 0 mm | - | - | - |
| 1777404608 | 15.56° C | 81% | 1021.2 hPa | 0 mm | - | - | - |
| 1777404305 | 15.56° C | 81% | 1021.1 hPa | 0 mm | - | - | - |
* Rain since midnight (hover to see other rain measurements)
** Current wind speed in m/s (hover to see current wind gust speed)